Time,TemperatureF,DewpointF,PressureIn,WindDirection,WindDirectionDegrees,WindSpeedMPH,WindSpeedGustMPH,Humidity,HourlyPrecipIn,Conditions,Clouds,dailyrainin,SoftwareType,DateUTC
2013-06-13 00:00:00,62.2,34.9,30.62,WSW,242,6.0,17.0,36,-99.99,,,0.00,meteohub,2013-06-13 04:00:00,
2013-06-13 00:01:00,62.2,34.9,30.62,WSW,251,8.0,17.0,36,-99.99,,,0.00,meteohub,2013-06-13 04:01:00,
2013-06-13 00:02:00,62.2,34.9,30.62,WNW,295,6.0,17.0,36,-99.99,,,0.00,meteohub,2013-06-13 04:02:00,
2013-06-13 00:03:00,62.1,34.9,30.62,SW,223,11.0,17.0,36,-99.99,,,0.00,meteohub,2013-06-13 04:03:00,
2013-06-13 00:08:00,61.9,34.7,30.62,WSW,258,8.0,17.0,36,-99.99,,,0.00,meteohub,2013-06-13 04:08:00,
2013-06-13 00:13:00,61.7,34.5,30.62,WNW,290,6.0,15.0,36,-99.99,,,0.00,meteohub,2013-06-13 04:13:00,
2013-06-13 00:19:00,61.5,34.3,30.65,West,275,5.0,15.0,36,-99.99,,,0.00,meteohub,2013-06-13 04:19:00,
2013-06-13 00:24:00,61.3,34.2,30.65,WNW,286,6.0,12.0,36,-99.99,,,0.00,meteohub,2013-06-13 04:24:00,
2013-06-13 00:29:00,61.3,34.2,30.65,WNW,285,6.0,12.0,36,-99.99,,,0.00,meteohub,2013-06-13 04:29:00,
2013-06-13 00:34:00,61.0,33.8,30.65,WSW,247,4.0,12.0,36,-99.99,,,0.00,meteohub,2013-06-13 04:34:00,
2013-06-13 00:40:00,61.0,33.8,30.65,SW,234,5.0,9.0,36,-99.99,,,0.00,meteohub,2013-06-13 04:40:00,
2013-06-13 00:45:00,60.8,34.3,30.65,SW,230,4.0,9.0,37,-99.99,,,0.00,meteohub,2013-06-13 04:45:00,
2013-06-13 00:50:00,60.6,34.9,30.65,SW,220,5.0,8.0,38,-99.99,,,0.00,meteohub,2013-06-13 04:50:00,
2013-06-13 00:55:00,60.6,34.9,30.65,SSW,206,4.0,8.0,38,-99.99,,,0.00,meteohub,2013-06-13 04:55:00,
2013-06-13 01:01:00,60.6,35.6,30.65,SW,217,5.0,7.0,39,-99.99,,,0.00,meteohub,2013-06-13 05:01:00,
2013-06-13 01:06:00,60.6,36.1,30.65,SSW,194,5.0,7.0,40,-99.99,,,0.00,meteohub,2013-06-13 05:06:00,
2013-06-13 01:11:00,60.6,36.1,30.65,SSW,205,5.0,7.0,40,-99.99,,,0.00,meteohub,2013-06-13 05:11:00,
2013-06-13 01:16:00,60.4,36.0,30.68,SSW,204,5.0,6.0,40,-99.99,,,0.00,meteohub,2013-06-13 05:16:00,
2013-06-13 01:21:00,60.4,36.7,30.68,SSW,205,6.0,6.0,41,-99.99,,,0.00,meteohub,2013-06-13 05:21:00,
2013-06-13 01:27:00,60.4,37.2,30.68,SW,222,5.0,6.0,42,-99.99,,,0.00,meteohub,2013-06-13 05:27:00,
2013-06-13 01:32:00,60.3,36.5,30.68,SW,225,6.0,8.0,41,-99.99,,,0.00,meteohub,2013-06-13 05:32:00,
2013-06-13 01:37:00,60.6,36.1,30.68,WSW,246,4.0,11.0,40,-99.99,,,0.00,meteohub,2013-06-13 05:37:00,
2013-06-13 01:42:00,60.6,35.6,30.68,West,265,6.0,11.0,39,-99.99,,,0.00,meteohub,2013-06-13 05:42:00,
2013-06-13 01:47:00,60.4,35.4,30.68,WSW,242,3.0,10.0,39,-99.99,,,0.00,meteohub,2013-06-13 05:47:00,
2013-06-13 01:52:00,60.4,34.7,30.68,WSW,239,3.0,10.0,38,-99.99,,,0.00,meteohub,2013-06-13 05:52:00,
2013-06-13 01:57:00,60.4,34.7,30.68,WSW,239,5.0,10.0,38,-99.99,,,0.00,meteohub,2013-06-13 05:57:00,
2013-06-13 02:02:00,60.4,34.7,30.71,SW,218,4.0,10.0,38,-99.99,,,0.00,meteohub,2013-06-13 06:02:00,
2013-06-13 02:07:00,60.3,34.5,30.71,SW,221,4.0,8.0,38,-99.99,,,0.00,meteohub,2013-06-13 06:07:00,
2013-06-13 02:13:00,60.1,34.3,30.71,WSW,237,4.0,6.0,38,-99.99,,,0.00,meteohub,2013-06-13 06:13:00,
2013-06-13 02:18:00,60.1,34.3,30.71,SW,229,3.0,6.0,38,-99.99,,,0.00,meteohub,2013-06-13 06:18:00,
2013-06-13 02:23:00,59.9,34.2,30.71,SW,228,3.0,6.0,38,-99.99,,,0.00,meteohub,2013-06-13 06:23:00,
2013-06-13 02:28:00,59.7,34.0,30.71,SW,227,3.0,6.0,38,-99.99,,,0.00,meteohub,2013-06-13 06:28:00,
2013-06-13 02:34:00,59.4,33.8,30.71,SSW,201,3.0,6.0,38,-99.99,,,0.00,meteohub,2013-06-13 06:34:00,
2013-06-13 02:39:00,59.4,34.3,30.71,South,190,4.0,4.0,39,-99.99,,,0.00,meteohub,2013-06-13 06:39:00,
2013-06-13 02:44:00,59.2,34.2,30.71,SSW,205,4.0,5.0,39,-99.99,,,0.00,meteohub,2013-06-13 06:44:00,
2013-06-13 02:49:00,59.4,35.6,30.71,SSW,205,5.0,5.0,41,-99.99,,,0.00,meteohub,2013-06-13 06:49:00,
2013-06-13 02:54:00,59.4,36.3,30.71,SSW,205,6.0,6.0,42,-99.99,,,0.00,meteohub,2013-06-13 06:54:00,
2013-06-13 03:00:00,59.4,36.9,30.74,SSW,213,6.0,6.0,43,-99.99,,,0.00,meteohub,2013-06-13 07:00:00,
2013-06-13 03:05:00,59.4,37.4,30.74,SSW,200,6.0,6.0,44,-99.99,,,0.00,meteohub,2013-06-13 07:05:00,
2013-06-13 03:10:00,59.4,37.4,30.74,SSW,201,5.0,6.0,44,-99.99,,,0.00,meteohub,2013-06-13 07:10:00,
2013-06-13 03:15:00,59.4,37.4,30.74,South,188,6.0,6.0,44,-99.99,,,0.00,meteohub,2013-06-13 07:15:00,
2013-06-13 03:20:00,59.4,37.4,30.74,SSW,197,6.0,8.0,44,-99.99,,,0.00,meteohub,2013-06-13 07:20:00,
2013-06-13 03:26:00,59.4,37.9,30.74,SSW,200,6.0,8.0,45,-99.99,,,0.00,meteohub,2013-06-13 07:26:00,
2013-06-13 03:31:00,59.4,37.9,30.74,SW,218,6.0,8.0,45,-99.99,,,0.00,meteohub,2013-06-13 07:31:00,
2013-06-13 03:36:00,59.2,37.9,30.74,SW,215,5.0,8.0,45,-99.99,,,0.00,meteohub,2013-06-13 07:36:00,
2013-06-13 03:41:00,59.2,37.9,30.74,SSW,205,5.0,6.0,45,-99.99,,,0.00,meteohub,2013-06-13 07:41:00,
2013-06-13 03:47:00,59.4,37.9,30.77,SSW,206,5.0,6.0,45,-99.99,,,0.00,meteohub,2013-06-13 07:47:00,
2013-06-13 03:52:00,59.4,37.9,30.77,SW,233,5.0,7.0,45,-99.99,,,0.00,meteohub,2013-06-13 07:52:00,
2013-06-13 03:57:00,59.4,37.9,30.77,SW,221,4.0,7.0,45,-99.99,,,0.00,meteohub,2013-06-13 07:57:00,
2013-06-13 04:02:00,59.4,37.9,30.77,SW,228,4.0,7.0,45,-99.99,,,0.00,meteohub,2013-06-13 08:02:00,
2013-06-13 04:07:00,59.4,37.9,30.77,SSW,213,4.0,7.0,45,-99.99,,,0.00,meteohub,2013-06-13 08:07:00,
2013-06-13 04:12:00,59.5,38.1,30.77,SSW,206,5.0,6.0,45,-99.99,,,0.00,meteohub,2013-06-13 08:12:00,
2013-06-13 04:17:00,59.7,38.8,30.77,SW,216,5.0,6.0,46,-99.99,,,0.00,meteohub,2013-06-13 08:17:00,
2013-06-13 04:22:00,59.5,38.7,30.77,SSW,206,6.0,6.0,46,-99.99,,,0.00,meteohub,2013-06-13 08:22:00,
2013-06-13 04:27:00,59.5,38.7,30.77,SSW,211,8.0,8.0,46,-99.99,,,0.00,meteohub,2013-06-13 08:27:00,
2013-06-13 04:32:00,59.7,38.8,30.80,SSW,197,5.0,8.0,46,-99.99,,,0.00,meteohub,2013-06-13 08:32:00,
2013-06-13 04:37:00,59.5,38.7,30.80,SSW,198,8.0,8.0,46,-99.99,,,0.00,meteohub,2013-06-13 08:37:00,
2013-06-13 04:42:00,59.5,38.1,30.80,SSW,202,5.0,9.0,45,-99.99,,,0.00,meteohub,2013-06-13 08:42:00,
2013-06-13 04:47:00,59.5,38.1,30.80,SSW,205,6.0,9.0,45,-99.99,,,0.00,meteohub,2013-06-13 08:47:00,
2013-06-13 04:52:00,59.4,37.9,30.80,SSW,205,6.0,9.0,45,-99.99,,,0.00,meteohub,2013-06-13 08:52:00,
2013-06-13 04:57:00,59.4,37.9,30.80,SSW,197,7.0,9.0,45,-99.99,,,0.00,meteohub,2013-06-13 08:57:00,
2013-06-13 05:02:00,59.2,37.9,30.80,SSW,211,5.0,9.0,45,-99.99,,,0.00,meteohub,2013-06-13 09:02:00,
2013-06-13 05:07:00,59.2,37.9,30.80,SSW,209,5.0,8.0,45,-99.99,,,0.00,meteohub,2013-06-13 09:07:00,
2013-06-13 05:12:00,59.2,37.9,30.80,SSW,210,4.0,8.0,45,-99.99,,,0.00,meteohub,2013-06-13 09:12:00,
2013-06-13 05:17:00,59.2,37.9,30.83,WSW,257,4.0,8.0,45,-99.99,,,0.00,meteohub,2013-06-13 09:17:00,
2013-06-13 05:22:00,58.8,37.6,30.83,West,272,4.0,6.0,45,-99.99,,,0.00,meteohub,2013-06-13 09:22:00,
2013-06-13 05:27:00,58.5,37.2,30.83,West,261,4.0,6.0,45,-99.99,,,0.00,meteohub,2013-06-13 09:27:00,
2013-06-13 05:33:00,58.3,37.0,30.83,West,267,4.0,6.0,45,-99.99,,,0.00,meteohub,2013-06-13 09:33:00,
2013-06-13 05:38:00,58.1,36.9,30.83,West,273,4.0,4.0,45,-99.99,,,0.00,meteohub,2013-06-13 09:38:00,
2013-06-13 05:43:00,58.1,36.9,30.83,West,265,4.0,5.0,45,-99.99,,,0.00,meteohub,2013-06-13 09:43:00,
2013-06-13 05:49:00,58.1,36.9,30.83,WSW,237,3.0,5.0,45,-99.99,,,0.00,meteohub,2013-06-13 09:49:00,
2013-06-13 05:54:00,58.3,37.6,30.83,SW,229,2.0,5.0,46,-99.99,,,0.00,meteohub,2013-06-13 09:54:00,
2013-06-13 05:59:00,58.5,37.8,30.83,SW,224,3.0,5.0,46,-99.99,,,0.00,meteohub,2013-06-13 09:59:00,
2013-06-13 06:04:00,58.8,38.7,30.83,SW,223,3.0,5.0,47,-99.99,,,0.00,meteohub,2013-06-13 10:04:00,
2013-06-13 06:10:00,59.2,39.0,30.83,SW,219,4.0,6.0,47,-99.99,,,0.00,meteohub,2013-06-13 10:10:00,
2013-06-13 06:15:00,59.5,39.4,30.83,WSW,238,3.0,6.0,47,-99.99,,,0.00,meteohub,2013-06-13 10:15:00,
2013-06-13 06:20:00,59.7,39.4,30.83,SW,229,4.0,6.0,47,-99.99,,,0.00,meteohub,2013-06-13 10:20:00,
2013-06-13 06:26:00,60.1,39.2,30.83,SW,221,3.0,5.0,46,-99.99,,,0.00,meteohub,2013-06-13 10:26:00,
2013-06-13 06:31:00,60.3,39.4,30.83,SW,226,3.0,5.0,46,-99.99,,,0.00,meteohub,2013-06-13 10:31:00,
2013-06-13 06:36:00,60.4,39.6,30.83,WSW,249,3.0,5.0,46,-99.99,,,0.00,meteohub,2013-06-13 10:36:00,
2013-06-13 06:42:00,60.4,39.6,30.83,West,276,3.0,5.0,46,-99.99,,,0.00,meteohub,2013-06-13 10:42:00,
2013-06-13 06:47:00,60.6,39.7,30.80,West,268,3.0,5.0,46,-99.99,,,0.00,meteohub,2013-06-13 10:47:00,
2013-06-13 06:52:00,61.0,39.6,30.80,West,265,2.0,5.0,45,-99.99,,,0.00,meteohub,2013-06-13 10:52:00,
2013-06-13 06:57:00,61.3,39.7,30.80,West,271,0.0,5.0,45,-99.99,,,0.00,meteohub,2013-06-13 10:57:00,
2013-06-13 07:02:00,61.7,40.1,30.77,WSW,258,0.0,5.0,45,-99.99,,,0.00,meteohub,2013-06-13 11:02:00,
2013-06-13 07:07:00,61.9,39.7,30.77,WNW,283,2.0,5.0,44,-99.99,,,0.00,meteohub,2013-06-13 11:07:00,
2013-06-13 07:12:00,61.9,38.5,30.77,SW,226,3.0,5.0,42,-99.99,,,0.00,meteohub,2013-06-13 11:12:00,
2013-06-13 07:17:00,62.2,38.3,30.77,WSW,248,3.0,6.0,41,-99.99,,,0.00,meteohub,2013-06-13 11:17:00,
2013-06-13 07:22:00,62.2,38.3,30.77,West,261,0.0,6.0,41,-99.99,,,0.00,meteohub,2013-06-13 11:22:00,
2013-06-13 07:27:00,62.4,37.2,30.77,SW,222,2.0,6.0,39,-99.99,,,0.00,meteohub,2013-06-13 11:27:00,
2013-06-13 07:32:00,62.4,36.5,30.77,WSW,246,4.0,6.0,38,-99.99,,,0.00,meteohub,2013-06-13 11:32:00,
2013-06-13 07:37:00,62.6,35.2,30.77,SW,222,4.0,6.0,36,-99.99,,,0.00,meteohub,2013-06-13 11:37:00,
2013-06-13 07:42:00,62.8,35.4,30.77,SSW,208,3.0,6.0,36,-99.99,,,0.00,meteohub,2013-06-13 11:42:00,
2013-06-13 07:47:00,62.8,34.7,30.77,West,260,3.0,6.0,35,-99.99,,,0.00,meteohub,2013-06-13 11:47:00,
2013-06-13 07:52:00,62.8,34.7,30.77,SW,224,0.0,6.0,35,-99.99,,,0.00,meteohub,2013-06-13 11:52:00,
2013-06-13 07:57:00,62.8,34.7,30.77,West,259,2.0,5.0,35,-99.99,,,0.00,meteohub,2013-06-13 11:57:00,
2013-06-13 08:02:00,63.0,34.9,30.77,West,278,0.0,5.0,35,-99.99,,,0.00,meteohub,2013-06-13 12:02:00,
2013-06-13 08:07:00,63.3,36.0,30.77,WSW,253,4.0,6.0,36,-99.99,,,0.00,meteohub,2013-06-13 12:07:00,
2013-06-13 08:12:00,63.3,35.2,30.77,WSW,238,5.0,6.0,35,-99.99,,,0.00,meteohub,2013-06-13 12:12:00,
2013-06-13 08:17:00,63.5,34.7,30.74,SW,219,4.0,6.0,34,-99.99,,,0.00,meteohub,2013-06-13 12:17:00,
2013-06-13 08:22:00,63.5,34.7,30.74,NW,320,3.0,6.0,34,-99.99,,,0.00,meteohub,2013-06-13 12:22:00,
2013-06-13 08:27:00,64.0,35.8,30.74,WNW,298,4.0,6.0,35,-99.99,,,0.00,meteohub,2013-06-13 12:27:00,
2013-06-13 08:32:00,64.2,35.2,30.74,West,275,4.0,5.0,34,-99.99,,,0.00,meteohub,2013-06-13 12:32:00,
2013-06-13 08:38:00,64.4,35.4,30.74,WNW,288,3.0,5.0,34,-99.99,,,0.00,meteohub,2013-06-13 12:38:00,
2013-06-13 08:43:00,65.1,35.2,30.74,NW,310,3.0,6.0,33,-99.99,,,0.00,meteohub,2013-06-13 12:43:00,
2013-06-13 08:48:00,65.7,34.2,30.68,North,349,4.0,6.0,31,-99.99,,,0.00,meteohub,2013-06-13 12:48:00,
2013-06-13 08:53:00,66.0,33.6,30.68,NW,316,4.0,6.0,30,-99.99,,,0.00,meteohub,2013-06-13 12:53:00,
2013-06-13 08:59:00,66.4,31.5,30.68,NNE,27,6.0,6.0,27,-99.99,,,0.00,meteohub,2013-06-13 12:59:00,
2013-06-13 09:04:00,66.7,30.7,30.62,NE,42,6.0,6.0,26,-99.99,,,0.00,meteohub,2013-06-13 13:04:00,
2013-06-13 09:09:00,66.6,31.5,30.62,NE,36,4.0,6.0,27,-99.99,,,0.00,meteohub,2013-06-13 13:09:00,
2013-06-13 09:14:00,66.2,32.2,30.62,East,87,5.0,6.0,28,-99.99,,,0.00,meteohub,2013-06-13 13:14:00,
2013-06-13 09:20:00,65.8,34.3,30.59,East,87,3.0,6.0,31,-99.99,,,0.00,meteohub,2013-06-13 13:20:00,
2013-06-13 09:25:00,65.5,35.6,30.59,East,89,3.0,6.0,33,-99.99,,,0.00,meteohub,2013-06-13 13:25:00,
2013-06-13 09:30:00,65.1,35.2,30.62,ENE,75,2.0,6.0,33,-99.99,,,0.00,meteohub,2013-06-13 13:30:00,
2013-06-13 09:36:00,65.1,35.2,30.62,NE,55,3.0,6.0,33,-99.99,,,0.00,meteohub,2013-06-13 13:36:00,
2013-06-13 09:41:00,64.9,36.0,30.62,NE,49,4.0,5.0,34,-99.99,,,0.00,meteohub,2013-06-13 13:41:00,
2013-06-13 09:46:00,64.9,36.0,30.62,NE,36,6.0,6.0,34,-99.99,,,0.00,meteohub,2013-06-13 13:46:00,
2013-06-13 09:51:00,64.9,36.0,30.62,NE,50,5.0,6.0,34,-99.99,,,0.00,meteohub,2013-06-13 13:51:00,
2013-06-13 09:57:00,64.9,36.0,30.62,ENE,65,5.0,6.0,34,-99.99,,,0.00,meteohub,2013-06-13 13:57:00,
2013-06-13 10:02:00,64.9,36.0,30.65,East,91,6.0,6.0,34,-99.99,,,0.00,meteohub,2013-06-13 14:02:00,
2013-06-13 10:07:00,64.9,36.0,30.65,East,84,5.0,7.0,34,-99.99,,,0.00,meteohub,2013-06-13 14:07:00,
2013-06-13 10:12:00,64.9,36.0,30.65,ENE,60,8.0,8.0,34,-99.99,,,0.00,meteohub,2013-06-13 14:12:00,
2013-06-13 10:17:00,64.9,36.0,30.65,ENE,69,8.0,8.0,34,-99.99,,,0.00,meteohub,2013-06-13 14:17:00,
2013-06-13 10:22:00,64.9,36.7,30.65,ENE,61,6.0,9.0,35,-99.99,,,0.00,meteohub,2013-06-13 14:22:00,
2013-06-13 10:27:00,64.8,35.8,30.65,NNE,23,11.0,11.0,34,-99.99,,,0.00,meteohub,2013-06-13 14:27:00,
2013-06-13 10:32:00,64.6,35.6,30.68,NE,40,9.0,12.0,34,-99.99,,,0.00,meteohub,2013-06-13 14:32:00,
2013-06-13 10:37:00,64.2,34.5,30.68,NNE,31,8.0,12.0,33,-99.99,,,0.00,meteohub,2013-06-13 14:37:00,
2013-06-13 10:42:00,64.0,32.7,30.68,NE,37,8.0,12.0,31,-99.99,,,0.00,meteohub,2013-06-13 14:42:00,
2013-06-13 10:47:00,63.9,30.2,30.68,NE,50,8.0,11.0,28,-99.99,,,0.00,meteohub,2013-06-13 14:47:00,
2013-06-13 10:53:00,64.2,35.2,30.68,NE,44,11.0,11.0,34,-99.99,,,0.00,meteohub,2013-06-13 14:53:00,
2013-06-13 10:58:00,63.9,30.2,30.68,NE,34,8.0,11.0,28,-99.99,,,0.00,meteohub,2013-06-13 14:58:00,
2013-06-13 11:03:00,64.0,29.3,30.68,NNE,22,9.0,11.0,27,-99.99,,,0.00,meteohub,2013-06-13 15:03:00,
2013-06-13 11:09:00,64.2,30.4,30.68,NNE,32,10.0,12.0,28,-99.99,,,0.00,meteohub,2013-06-13 15:09:00,
2013-06-13 11:14:00,64.2,28.6,30.68,NE,50,10.0,12.0,26,-99.99,,,0.00,meteohub,2013-06-13 15:14:00,
2013-06-13 11:19:00,64.2,32.2,30.68,ENE,58,11.0,12.0,30,-99.99,,,0.00,meteohub,2013-06-13 15:19:00,
2013-06-13 11:24:00,63.9,31.8,30.68,NNE,33,10.0,12.0,30,-99.99,,,0.00,meteohub,2013-06-13 15:24:00,
2013-06-13 11:30:00,63.7,29.1,30.68,NE,40,8.0,12.0,27,-99.99,,,0.00,meteohub,2013-06-13 15:30:00,
2013-06-13 11:35:00,63.7,30.0,30.68,NNE,16,8.0,12.0,28,-99.99,,,0.00,meteohub,2013-06-13 15:35:00,
2013-06-13 11:40:00,63.5,29.8,30.68,NNE,16,6.0,11.0,28,-99.99,,,0.00,meteohub,2013-06-13 15:40:00,
2013-06-13 11:45:00,63.5,29.8,30.68,NE,45,11.0,12.0,28,-99.99,,,0.00,meteohub,2013-06-13 15:45:00,
2013-06-13 11:51:00,63.5,30.7,30.68,NNE,30,8.0,12.0,29,-99.99,,,0.00,meteohub,2013-06-13 15:51:00,
2013-06-13 11:56:00,63.3,29.7,30.68,NE,37,8.0,11.0,28,-99.99,,,0.00,meteohub,2013-06-13 15:56:00,
2013-06-13 12:01:00,63.1,30.4,30.68,NNE,31,6.0,11.0,29,-99.99,,,0.00,meteohub,2013-06-13 16:01:00,
2013-06-13 12:07:00,63.1,32.7,30.68,NE,42,8.0,11.0,32,-99.99,,,0.00,meteohub,2013-06-13 16:07:00,
2013-06-13 12:12:00,63.1,33.6,30.68,NNE,24,6.0,11.0,33,-99.99,,,0.00,meteohub,2013-06-13 16:12:00,
2013-06-13 12:17:00,63.1,34.3,30.65,NNE,24,9.0,10.0,34,-99.99,,,0.00,meteohub,2013-06-13 16:17:00,
2013-06-13 12:22:00,63.0,33.4,30.65,North,11,8.0,10.0,33,-99.99,,,0.00,meteohub,2013-06-13 16:22:00,
2013-06-13 12:27:00,63.1,34.3,30.65,NE,40,11.0,11.0,34,-99.99,,,0.00,meteohub,2013-06-13 16:27:00,
2013-06-13 12:32:00,63.1,33.6,30.65,NE,34,10.0,11.0,33,-99.99,,,0.00,meteohub,2013-06-13 16:32:00,
2013-06-13 12:37:00,63.1,32.0,30.65,North,4,9.0,11.0,31,-99.99,,,0.00,meteohub,2013-06-13 16:37:00,
2013-06-13 12:42:00,63.1,32.7,30.65,NNE,23,8.0,12.0,32,-99.99,,,0.00,meteohub,2013-06-13 16:42:00,
2013-06-13 12:47:00,63.0,31.8,30.65,NE,52,8.0,12.0,31,-99.99,,,0.00,meteohub,2013-06-13 16:47:00,
2013-06-13 12:52:00,63.0,31.8,30.65,NE,37,6.0,11.0,31,-99.99,,,0.00,meteohub,2013-06-13 16:52:00,
2013-06-13 12:57:00,63.0,34.2,30.65,NNE,27,6.0,11.0,34,-99.99,,,0.00,meteohub,2013-06-13 16:57:00,
2013-06-13 13:03:00,62.8,34.0,30.62,NNE,12,8.0,11.0,34,-99.99,,,0.00,meteohub,2013-06-13 17:03:00,
2013-06-13 13:08:00,62.6,34.5,30.62,NNE,19,8.0,11.0,35,-99.99,,,0.00,meteohub,2013-06-13 17:08:00,
2013-06-13 13:13:00,62.4,35.8,30.62,NNE,18,9.0,11.0,37,-99.99,,,0.00,meteohub,2013-06-13 17:13:00,
2013-06-13 13:18:00,61.9,34.7,30.62,NNE,24,8.0,11.0,36,-99.99,,,0.00,meteohub,2013-06-13 17:18:00,
2013-06-13 13:24:00,62.1,35.4,30.62,NNE,28,9.0,11.0,37,-99.99,,,0.00,meteohub,2013-06-13 17:24:00,
2013-06-13 13:29:00,61.9,35.2,30.62,NNE,26,8.0,11.0,37,-99.99,,,0.00,meteohub,2013-06-13 17:29:00,
2013-06-13 13:34:00,61.7,35.2,30.62,NNE,25,10.0,11.0,37,-99.99,,,0.00,meteohub,2013-06-13 17:34:00,
2013-06-13 13:39:00,61.7,35.2,30.62,NNE,18,8.0,11.0,37,-99.99,,,0.00,meteohub,2013-06-13 17:39:00,
2013-06-13 13:44:00,61.9,36.0,30.62,NE,44,6.0,11.0,38,-99.99,,,0.00,meteohub,2013-06-13 17:44:00,
2013-06-13 13:50:00,61.7,35.2,30.62,NE,42,8.0,11.0,37,-99.99,,,0.00,meteohub,2013-06-13 17:50:00,
2013-06-13 13:55:00,61.7,34.5,30.62,NNE,29,5.0,10.0,36,-99.99,,,0.00,meteohub,2013-06-13 17:55:00,
2013-06-13 14:00:00,61.7,34.5,30.65,East,81,4.0,9.0,36,-99.99,,,0.00,meteohub,2013-06-13 18:00:00,
2013-06-13 14:06:00,61.7,35.2,30.65,NE,45,7.0,9.0,37,-99.99,,,0.00,meteohub,2013-06-13 18:06:00,
2013-06-13 14:11:00,61.7,35.8,30.65,NE,47,6.0,8.0,38,-99.99,,,0.00,meteohub,2013-06-13 18:11:00,
2013-06-13 14:16:00,61.7,36.5,30.65,NNE,28,6.0,9.0,39,-99.99,,,0.00,meteohub,2013-06-13 18:16:00,
2013-06-13 14:21:00,61.5,36.3,30.65,NE,37,8.0,9.0,39,-99.99,,,0.00,meteohub,2013-06-13 18:21:00,
2013-06-13 14:26:00,61.3,37.4,30.65,NNE,14,10.0,10.0,41,-99.99,,,0.00,meteohub,2013-06-13 18:26:00,
2013-06-13 14:32:00,61.3,38.7,30.62,NNE,15,9.0,13.0,43,-99.99,,,0.00,meteohub,2013-06-13 18:32:00,
2013-06-13 14:37:00,61.3,39.2,30.62,NNE,30,8.0,13.0,44,-99.99,,,0.00,meteohub,2013-06-13 18:37:00,
2013-06-13 14:42:00,61.3,39.7,30.62,NNE,13,11.0,13.0,45,-99.99,,,0.00,meteohub,2013-06-13 18:42:00,
2013-06-13 14:47:00,61.3,39.7,30.59,NNE,16,9.0,15.0,45,-99.99,,,0.00,meteohub,2013-06-13 18:47:00,
2013-06-13 14:52:00,61.3,39.7,30.59,NE,36,8.0,15.0,45,-99.99,,,0.00,meteohub,2013-06-13 18:52:00,
2013-06-13 14:57:00,61.2,39.0,30.59,NE,42,11.0,15.0,44,-99.99,,,0.00,meteohub,2013-06-13 18:57:00,
2013-06-13 15:02:00,61.3,39.2,30.62,ENE,57,10.0,13.0,44,-99.99,,,0.00,meteohub,2013-06-13 19:02:00,
2013-06-13 15:07:00,61.3,39.2,30.62,NE,48,9.0,13.0,44,-99.99,,,0.00,meteohub,2013-06-13 19:07:00,
2013-06-13 15:12:00,61.2,38.5,30.62,ENE,58,11.0,13.0,43,-99.99,,,0.00,meteohub,2013-06-13 19:12:00,
2013-06-13 15:17:00,61.3,38.1,30.62,NNE,33,11.0,13.0,42,-99.99,,,0.00,meteohub,2013-06-13 19:17:00,
2013-06-13 15:22:00,61.2,37.2,30.62,NE,46,15.0,15.0,41,-99.99,,,0.00,meteohub,2013-06-13 19:22:00,
2013-06-13 15:27:00,61.3,39.2,30.62,NE,45,13.0,15.0,44,-99.99,,,0.00,meteohub,2013-06-13 19:27:00,
2013-06-13 15:32:00,61.2,38.5,30.62,ENE,71,12.0,15.0,43,-99.99,,,0.00,meteohub,2013-06-13 19:32:00,
2013-06-13 15:38:00,61.2,39.0,30.62,NNE,26,9.0,15.0,44,-99.99,,,0.00,meteohub,2013-06-13 19:38:00,
2013-06-13 15:43:00,61.2,39.0,30.62,ENE,59,15.0,15.0,44,-99.99,,,0.00,meteohub,2013-06-13 19:43:00,
2013-06-13 15:48:00,60.8,37.6,30.62,NNE,24,13.0,15.0,42,-99.99,,,0.00,meteohub,2013-06-13 19:48:00,
2013-06-13 15:53:00,61.3,38.1,30.62,NE,34,13.0,15.0,42,-99.99,,,0.00,meteohub,2013-06-13 19:53:00,
2013-06-13 15:59:00,62.2,39.4,30.62,NE,38,11.0,15.0,43,-99.99,,,0.00,meteohub,2013-06-13 19:59:00,
2013-06-13 16:04:00,62.6,37.2,30.65,NE,43,8.0,15.0,39,-99.99,,,0.00,meteohub,2013-06-13 20:04:00,
2013-06-13 16:09:00,62.4,36.5,30.65,NE,40,9.0,15.0,38,-99.99,,,0.00,meteohub,2013-06-13 20:09:00,
2013-06-13 16:14:00,62.4,36.5,30.65,NE,48,13.0,15.0,38,-99.99,,,0.00,meteohub,2013-06-13 20:14:00,
2013-06-13 16:19:00,62.4,35.8,30.62,NNE,14,13.0,13.0,37,-99.99,,,0.00,meteohub,2013-06-13 20:19:00,
2013-06-13 16:25:00,62.6,35.2,30.62,NE,35,13.0,13.0,36,-99.99,,,0.00,meteohub,2013-06-13 20:25:00,
2013-06-13 16:30:00,62.8,36.1,30.62,NNE,28,8.0,14.0,37,-99.99,,,0.00,meteohub,2013-06-13 20:30:00,
2013-06-13 16:35:00,62.8,36.1,30.62,NE,35,8.0,14.0,37,-99.99,,,0.00,meteohub,2013-06-13 20:35:00,
2013-06-13 16:41:00,62.4,35.8,30.62,NNE,17,10.0,14.0,37,-99.99,,,0.00,meteohub,2013-06-13 20:41:00,
2013-06-13 16:46:00,62.2,35.6,30.59,North,5,14.0,14.0,37,-99.99,,,0.00,meteohub,2013-06-13 20:46:00,
2013-06-13 16:51:00,62.1,35.4,30.59,NNE,16,13.0,16.0,37,-99.99,,,0.00,meteohub,2013-06-13 20:51:00,
2013-06-13 16:56:00,61.9,36.0,30.59,NE,46,8.0,16.0,38,-99.99,,,0.00,meteohub,2013-06-13 20:56:00,
2013-06-13 17:01:00,61.5,35.6,30.62,NNE,14,14.0,16.0,38,-99.99,,,0.00,meteohub,2013-06-13 21:01:00,
2013-06-13 17:06:00,61.5,35.6,30.62,NNE,29,11.0,16.0,38,-99.99,,,0.00,meteohub,2013-06-13 21:06:00,
2013-06-13 17:12:00,61.3,36.1,30.62,NNE,33,11.0,14.0,39,-99.99,,,0.00,meteohub,2013-06-13 21:12:00,
2013-06-13 17:17:00,61.3,36.9,30.62,North,4,12.0,14.0,40,-99.99,,,0.00,meteohub,2013-06-13 21:17:00,
2013-06-13 17:22:00,61.2,36.0,30.62,North,10,13.0,13.0,39,-99.99,,,0.00,meteohub,2013-06-13 21:22:00,
2013-06-13 17:27:00,61.2,36.7,30.62,North,5,6.0,13.0,40,-99.99,,,0.00,meteohub,2013-06-13 21:27:00,
2013-06-13 17:32:00,61.2,36.7,30.62,NNE,14,9.0,13.0,40,-99.99,,,0.00,meteohub,2013-06-13 21:32:00,
2013-06-13 17:37:00,60.8,35.6,30.62,North,5,15.0,15.0,39,-99.99,,,0.00,meteohub,2013-06-13 21:37:00,
2013-06-13 17:42:00,60.6,36.9,30.62,North,10,10.0,17.0,41,-99.99,,,0.00,meteohub,2013-06-13 21:42:00,
2013-06-13 17:47:00,60.6,37.4,30.59,North,9,11.0,17.0,42,-99.99,,,0.00,meteohub,2013-06-13 21:47:00,
2013-06-13 17:52:00,60.6,38.7,30.59,NNE,18,8.0,17.0,44,-99.99,,,0.00,meteohub,2013-06-13 21:52:00,
2013-06-13 17:57:00,60.6,39.2,30.59,NNW,348,10.0,17.0,45,-99.99,,,0.00,meteohub,2013-06-13 21:57:00,
2013-06-13 18:02:00,60.6,38.7,30.59,North,4,10.0,15.0,44,-99.99,,,0.00,meteohub,2013-06-13 22:02:00,
2013-06-13 18:07:00,60.4,38.5,30.59,North,353,6.0,15.0,44,-99.99,,,0.00,meteohub,2013-06-13 22:07:00,
2013-06-13 18:12:00,60.4,39.0,30.59,NNW,346,11.0,14.0,45,-99.99,,,0.00,meteohub,2013-06-13 22:12:00,
2013-06-13 18:17:00,60.3,38.8,30.56,North,5,8.0,14.0,45,-99.99,,,0.00,meteohub,2013-06-13 22:17:00,
2013-06-13 18:23:00,60.3,38.8,30.56,North,353,8.0,14.0,45,-99.99,,,0.00,meteohub,2013-06-13 22:23:00,
2013-06-13 18:28:00,60.3,38.8,30.56,NNE,26,13.0,14.0,45,-99.99,,,0.00,meteohub,2013-06-13 22:28:00,
2013-06-13 18:33:00,60.3,38.8,30.56,NNE,14,11.0,14.0,45,-99.99,,,0.00,meteohub,2013-06-13 22:33:00,
2013-06-13 18:39:00,60.3,38.3,30.56,North,349,11.0,15.0,44,-99.99,,,0.00,meteohub,2013-06-13 22:39:00,
2013-06-13 18:44:00,60.3,38.3,30.56,North,1,8.0,13.0,44,-99.99,,,0.00,meteohub,2013-06-13 22:44:00,
2013-06-13 18:49:00,60.3,38.3,30.56,NNE,16,10.0,13.0,44,-99.99,,,0.00,meteohub,2013-06-13 22:49:00,
2013-06-13 18:54:00,60.3,38.3,30.56,North,357,11.0,12.0,44,-99.99,,,0.00,meteohub,2013-06-13 22:54:00,
2013-06-13 18:59:00,60.1,36.9,30.56,North,353,9.0,11.0,42,-99.99,,,0.00,meteohub,2013-06-13 22:59:00,
2013-06-13 19:05:00,60.1,36.9,30.56,North,357,8.0,11.0,42,-99.99,,,0.00,meteohub,2013-06-13 23:05:00,
2013-06-13 19:10:00,60.3,37.8,30.56,North,4,10.0,14.0,43,-99.99,,,0.00,meteohub,2013-06-13 23:10:00,
2013-06-13 19:15:00,60.3,37.8,30.59,North,357,11.0,14.0,43,-99.99,,,0.00,meteohub,2013-06-13 23:15:00,
2013-06-13 19:20:00,60.3,37.8,30.59,North,9,12.0,14.0,43,-99.99,,,0.00,meteohub,2013-06-13 23:20:00,
2013-06-13 19:26:00,60.1,36.9,30.59,North,357,7.0,13.0,42,-99.99,,,0.00,meteohub,2013-06-13 23:26:00,
2013-06-13 19:31:00,59.9,36.7,30.59,North,353,8.0,13.0,42,-99.99,,,0.00,meteohub,2013-06-13 23:31:00,
2013-06-13 19:36:00,59.9,37.4,30.59,North,350,13.0,15.0,43,-99.99,,,0.00,meteohub,2013-06-13 23:36:00,
2013-06-13 19:41:00,59.7,36.5,30.59,North,2,13.0,15.0,42,-99.99,,,0.00,meteohub,2013-06-13 23:41:00,
2013-06-13 19:47:00,59.7,37.8,30.59,North,357,8.0,15.0,44,-99.99,,,0.00,meteohub,2013-06-13 23:47:00,
2013-06-13 19:52:00,59.5,37.6,30.59,North,2,11.0,15.0,44,-99.99,,,0.00,meteohub,2013-06-13 23:52:00,
2013-06-13 19:57:00,59.5,37.6,30.59,North,8,8.0,15.0,44,-99.99,,,0.00,meteohub,2013-06-13 23:57:00,
2013-06-13 20:02:00,59.5,37.6,30.59,North,357,11.0,15.0,44,-99.99,,,0.00,meteohub,2013-06-14 00:02:00,
2013-06-13 20:07:00,59.5,38.1,30.59,NNW,344,8.0,15.0,45,-99.99,,,0.00,meteohub,2013-06-14 00:07:00,
2013-06-13 20:12:00,59.5,38.1,30.59,North,3,12.0,14.0,45,-99.99,,,0.00,meteohub,2013-06-14 00:12:00,
2013-06-13 20:17:00,59.4,37.9,30.59,NNW,327,6.0,15.0,45,-99.99,,,0.00,meteohub,2013-06-14 00:17:00,
2013-06-13 20:22:00,59.4,37.9,30.59,NNE,14,8.0,15.0,45,-99.99,,,0.00,meteohub,2013-06-14 00:22:00,
2013-06-13 20:27:00,59.4,37.9,30.59,NNW,337,13.0,15.0,45,-99.99,,,0.00,meteohub,2013-06-14 00:27:00,
2013-06-13 20:32:00,59.4,37.9,30.59,North,357,10.0,15.0,45,-99.99,,,0.00,meteohub,2013-06-14 00:32:00,
2013-06-13 20:37:00,59.4,37.9,30.59,North,353,8.0,15.0,45,-99.99,,,0.00,meteohub,2013-06-14 00:37:00,
2013-06-13 20:42:00,59.4,37.9,30.59,North,353,9.0,15.0,45,-99.99,,,0.00,meteohub,2013-06-14 00:42:00,
2013-06-13 20:47:00,59.4,37.4,30.62,North,350,11.0,14.0,44,-99.99,,,0.00,meteohub,2013-06-14 00:47:00,
2013-06-13 20:53:00,59.4,37.4,30.62,North,353,11.0,13.0,44,-99.99,,,0.00,meteohub,2013-06-14 00:53:00,
2013-06-13 20:58:00,59.4,37.9,30.62,North,5,13.0,13.0,45,-99.99,,,0.00,meteohub,2013-06-14 00:58:00,
2013-06-13 21:03:00,59.4,37.9,30.62,North,357,11.0,15.0,45,-99.99,,,0.00,meteohub,2013-06-14 01:03:00,
2013-06-13 21:08:00,59.4,37.9,30.62,North,4,8.0,15.0,45,-99.99,,,0.00,meteohub,2013-06-14 01:08:00,
2013-06-13 21:14:00,59.5,39.4,30.62,North,353,11.0,14.0,47,-99.99,,,0.00,meteohub,2013-06-14 01:14:00,
2013-06-13 21:19:00,59.4,39.2,30.62,North,5,8.0,13.0,47,-99.99,,,0.00,meteohub,2013-06-14 01:19:00,
2013-06-13 21:24:00,59.0,38.8,30.62,NNW,330,6.0,13.0,47,-99.99,,,0.00,meteohub,2013-06-14 01:24:00,
2013-06-13 21:29:00,59.0,39.4,30.65,NNW,334,4.0,13.0,48,-99.99,,,0.00,meteohub,2013-06-14 01:29:00,
2013-06-13 21:35:00,58.8,40.3,30.65,North,0,9.0,13.0,50,-99.99,,,0.00,meteohub,2013-06-14 01:35:00,
2013-06-13 21:40:00,58.8,40.8,30.65,NNW,344,8.0,13.0,51,-99.99,,,0.00,meteohub,2013-06-14 01:40:00,
2013-06-13 21:45:00,58.8,41.2,30.65,NNW,345,8.0,15.0,52,-99.99,,,0.00,meteohub,2013-06-14 01:45:00,
2013-06-13 21:50:00,58.8,41.7,30.65,North,7,6.0,15.0,53,-99.99,,,0.00,meteohub,2013-06-14 01:50:00,
2013-06-13 21:55:00,59.0,42.4,30.65,NNW,344,8.0,15.0,54,-99.99,,,0.00,meteohub,2013-06-14 01:55:00,
2013-06-13 22:01:00,58.8,42.6,30.65,NNW,328,12.0,13.0,55,-99.99,,,0.00,meteohub,2013-06-14 02:01:00,
2013-06-13 22:06:00,59.0,43.3,30.65,NNW,342,8.0,13.0,56,-99.99,,,0.00,meteohub,2013-06-14 02:06:00,
2013-06-13 22:11:00,59.0,43.7,30.65,NW,325,8.0,15.0,57,-99.99,,,0.00,meteohub,2013-06-14 02:11:00,
2013-06-13 22:16:00,59.0,43.3,30.65,NW,322,8.0,15.0,56,-99.99,,,0.00,meteohub,2013-06-14 02:16:00,
2013-06-13 22:22:00,59.0,43.7,30.65,NNW,332,11.0,15.0,57,-99.99,,,0.00,meteohub,2013-06-14 02:22:00,
2013-06-13 22:27:00,59.0,43.7,30.65,NNW,337,11.0,15.0,57,-99.99,,,0.00,meteohub,2013-06-14 02:27:00,
2013-06-13 22:32:00,59.2,44.4,30.65,NNW,340,14.0,16.0,58,-99.99,,,0.00,meteohub,2013-06-14 02:32:00,
2013-06-13 22:37:00,59.0,44.8,30.65,NW,311,13.0,16.0,59,-99.99,,,0.00,meteohub,2013-06-14 02:37:00,
2013-06-13 22:42:00,58.8,44.6,30.65,NNW,329,11.0,17.0,59,-99.99,,,0.00,meteohub,2013-06-14 02:42:00,
2013-06-13 22:48:00,58.8,45.0,30.65,NNW,327,11.0,17.0,60,-99.99,,,0.00,meteohub,2013-06-14 02:48:00,
2013-06-13 22:53:00,58.8,45.0,30.65,North,349,12.0,17.0,60,-99.99,,,0.00,meteohub,2013-06-14 02:53:00,
2013-06-13 22:58:00,58.6,44.8,30.65,NW,320,11.0,17.0,60,-99.99,,,0.00,meteohub,2013-06-14 02:58:00,
2013-06-13 23:03:00,58.6,44.8,30.68,NNW,330,10.0,15.0,60,-99.99,,,0.00,meteohub,2013-06-14 03:03:00,
2013-06-13 23:09:00,58.6,45.3,30.68,NNW,332,15.0,15.0,61,-99.99,,,0.00,meteohub,2013-06-14 03:09:00,
2013-06-13 23:14:00,58.8,45.3,30.68,NNW,336,10.0,15.0,61,-99.99,,,0.00,meteohub,2013-06-14 03:14:00,
2013-06-13 23:19:00,58.8,45.9,30.68,NNW,332,13.0,15.0,62,-99.99,,,0.00,meteohub,2013-06-14 03:19:00,
2013-06-13 23:24:00,58.8,46.2,30.68,NW,324,8.0,15.0,63,-99.99,,,0.00,meteohub,2013-06-14 03:24:00,
2013-06-13 23:30:00,58.8,46.2,30.68,NNW,341,8.0,15.0,63,-99.99,,,0.00,meteohub,2013-06-14 03:30:00,
2013-06-13 23:35:00,58.8,46.2,30.68,North,4,13.0,16.0,63,-99.99,,,0.00,meteohub,2013-06-14 03:35:00,
2013-06-13 23:40:00,58.8,46.2,30.68,North,2,9.0,16.0,63,-99.99,,,0.00,meteohub,2013-06-14 03:40:00,
2013-06-13 23:45:00,58.8,46.6,30.68,NW,326,19.0,19.0,64,-99.99,,,0.00,meteohub,2013-06-14 03:45:00,
2013-06-13 23:50:00,58.8,46.6,30.68,NNW,336,11.0,20.0,64,-99.99,,,0.00,meteohub,2013-06-14 03:50:00,
2013-06-13 23:56:00,58.8,46.6,30.68,NNW,328,13.0,20.0,64,-99.99,,,0.00,meteohub,2013-06-14 03:56:00,